Tracking 30685 objects as of 17-Jun-2025
HD Live streaming from Space Station
objects crossing your sky now

FENGYUN 1C DEB

Track FENGYUN 1C DEB now!
10-day predictions


NORAD ID: 37441
Int'l Code: 1999-025EHK
Perigee: 828.0 km
Apogee: 1,602.8 km
Inclination: 99.2 °
Period: 109.6 minutes
Semi major axis: 7586 km
RCS: 0.0082 m2 (small)
Launch date: May 10, 1999
Source: People's Republic of China (PRC)
Launch site: Taiyaun Space Center, China (TSC)

Note: This is SATELLITE DEBRIS
Your satellite tracking list
Your tracking list is empty




NASA's NSSDC Master Catalog

Two Line Element Set (TLE):
1 37441U 99025EHK 25167.42329024  .00000952  00000-0  13853-2 0  9999
2 37441  99.1688  37.9909 0510649 122.1936 242.9758 13.13861131798175
Source of the keplerian elements: AFSPC